Location: Cambridge (historical)
(38.6883°N, 119.0140°W)
Time: 16:05:08
(UTC+00:00)

Cosmos 2278 - Pass Details

Date: 29 October 2020
Orbit: 842 x 851 km, 71.1° (Epoch: 23 November)

Event Time Altitude Azimuth Distance (km) Brightness Sun altitude
Exits shadow 13:23:56 - 328° (NNW) 3,296 6.4 -11.6°
Reaches altitude 10° 13:26:14 10° 322° (NW) 2,465 5.7 -11.1°
Maximum altitude 13:31:25 38° 255° (WSW) 1,255 4.2 -10.1°
Drops below altitude 10° 13:36:34 10° 189° (S) 2,450 6.1 -9.1°
Sets 13:39:08 0° 181° (S) 3,381 7.0 -8.6°
